DLH4HK EDDF-EKCH

Flight info

Callsign DLH4HK
Flight time N/A
Altitude 35000
Route MARUN3W/25C MARUN Y150 TOLGI DCT SAS DCT MAKEL N851 GESKA Z711 MONAK
Aircraft A320/M-SDE3FGHIRWY/LB1

Departure

Time 2026-05-04 14:55
Airport Frankfurt Main Airport (EDDF)

Arrival

Time N/A
Airport Copenhagen Kastrup Airport (EKCH)
Time Latitude Longitude Altitude Speed Heading
2026-05-04 14:19 50.04431 8.56329 362 ft 0 kts 167°
2026-05-04 14:43 50.04433 8.56328 356 ft 2 kts 167°
2026-05-04 14:43 50.04459 8.56320 358 ft 4 kts 174°
2026-05-04 14:43 50.04485 8.56320 362 ft 4 kts 194°
2026-05-04 14:43 50.04505 8.56338 365 ft 4 kts 248°
2026-05-04 14:44 50.04502 8.56324 358 ft 4 kts 249°
2026-05-04 14:44 50.04492 8.56284 359 ft 4 kts 249°
2026-05-04 14:44 50.04483 8.56245 364 ft 4 kts 249°
2026-05-04 14:44 50.04473 8.56206 358 ft 4 kts 249°
2026-05-04 14:45 50.04463 8.56166 359 ft 4 kts 249°
2026-05-04 14:45 50.04454 8.56128 364 ft 3 kts 249°
2026-05-04 14:45 50.04453 8.56123 363 ft 0 kts 249°
2026-05-04 14:48 50.04452 8.56118 362 ft 3 kts 249°
2026-05-04 14:48 50.04437 8.56063 362 ft 6 kts 243°
2026-05-04 14:49 50.04405 8.56035 358 ft 5 kts 190°
2026-05-04 14:49 50.04367 8.56044 359 ft 6 kts 165°
2026-05-04 14:49 50.04329 8.56063 358 ft 6 kts 161°
2026-05-04 14:49 50.04295 8.56112 359 ft 9 kts 108°
2026-05-04 14:50 50.04275 8.56210 358 ft 9 kts 131°
2026-05-04 14:50 50.04214 8.56259 356 ft 11 kts 159°
2026-05-04 14:50 50.04149 8.56321 360 ft 12 kts 105°
2026-05-04 14:50 50.04164 8.56433 357 ft 9 kts 70°
2026-05-04 14:51 50.04184 8.56518 361 ft 7 kts 70°
2026-05-04 14:51 50.04199 8.56578 363 ft 5 kts 69°
2026-05-04 14:51 50.04208 8.56617 360 ft 3 kts 70°
2026-05-04 14:51 50.04220 8.56667 364 ft 10 kts 70°
2026-05-04 14:52 50.04248 8.56785 361 ft 10 kts 70°
2026-05-04 14:52 50.04277 8.56907 361 ft 16 kts 70°
2026-05-04 14:52 50.04318 8.57082 369 ft 16 kts 69°
2026-05-04 14:52 50.04354 8.57231 361 ft 14 kts 70°
2026-05-04 14:53 50.04386 8.57362 365 ft 12 kts 69°
2026-05-04 14:53 50.04415 8.57486 364 ft 12 kts 70°
2026-05-04 14:53 50.04421 8.57592 364 ft 7 kts 105°
2026-05-04 14:53 50.04375 8.57665 367 ft 13 kts 152°
2026-05-04 14:54 50.04282 8.57696 366 ft 15 kts 219°
2026-05-04 14:54 50.04218 8.57462 365 ft 49 kts 249°
2026-05-04 14:54 50.04010 8.56595 357 ft 118 kts 250°
2026-05-04 14:54 50.03662 8.55152 354 ft 168 kts 249°
2026-05-04 14:55 50.03264 8.53428 986 ft 168 kts 248°
2026-05-04 14:55 50.02863 8.51718 1718 ft 171 kts 251°
2026-05-04 14:55 50.02343 8.49960 2194 ft 187 kts 237°
2026-05-04 14:55 50.01338 8.48564 2695 ft 202 kts 210°
2026-05-04 14:56 49.99968 8.47912 3272 ft 212 kts 191°
2026-05-04 14:56 49.98502 8.47611 3926 ft 213 kts 191°
2026-05-04 14:56 49.97034 8.47298 4618 ft 213 kts 190°
2026-05-04 14:56 49.95578 8.46849 5235 ft 217 kts 198°
2026-05-04 14:57 49.94049 8.46148 5623 ft 238 kts 197°
2026-05-04 14:57 49.92476 8.45300 6451 ft 241 kts 208°
2026-05-04 14:57 49.91591 8.44263 7040 ft 244 kts 225°
2026-05-04 14:57 49.90747 8.41972 7898 ft 251 kts 252°
2026-05-04 14:58 49.90715 8.39238 8740 ft 261 kts 281°
2026-05-04 14:58 49.91593 8.36733 9557 ft 274 kts 312°
2026-05-04 14:58 49.93228 8.35144 10262 ft 286 kts 334°
2026-05-04 14:58 49.95132 8.33884 10524 ft 310 kts 335°
2026-05-04 14:59 49.97201 8.32555 10764 ft 334 kts 335°
2026-05-04 14:59 49.99414 8.31142 11182 ft 350 kts 336°
2026-05-04 14:59 50.04130 8.28824 12631 ft 364 kts 353°
2026-05-04 15:00 50.06662 8.28892 12911 ft 366 kts
2026-05-04 15:00 50.09123 8.30004 13565 ft 369 kts 20°
2026-05-04 15:00 50.11554 8.31333 14309 ft 373 kts 19°
2026-05-04 15:01 50.16516 8.33933 15566 ft 380 kts 18°
2026-05-04 15:01 50.19037 8.35236 16185 ft 384 kts 18°
2026-05-04 15:01 50.21584 8.36558 16785 ft 388 kts 18°
2026-05-04 15:01 50.24161 8.37905 17395 ft 393 kts 19°
2026-05-04 15:02 50.26772 8.39281 18025 ft 397 kts 18°
2026-05-04 15:02 50.29400 8.40665 18542 ft 401 kts 18°
2026-05-04 15:02 50.32064 8.42082 19042 ft 405 kts 18°
2026-05-04 15:02 50.34735 8.43530 19569 ft 408 kts 19°
2026-05-04 15:03 50.37418 8.45004 20128 ft 410 kts 18°
2026-05-04 15:03 50.40122 8.46493 20641 ft 413 kts 18°
2026-05-04 15:03 50.42818 8.47978 21117 ft 416 kts 18°
2026-05-04 15:03 50.45559 8.49491 21631 ft 420 kts 18°
2026-05-04 15:04 50.48332 8.51003 22119 ft 423 kts 17°
2026-05-04 15:04 50.51143 8.52428 22631 ft 426 kts 16°
2026-05-04 15:04 50.54000 8.53791 23092 ft 430 kts 15°
2026-05-04 15:04 50.56873 8.55118 23545 ft 433 kts 14°
2026-05-04 15:05 50.59689 8.56864 23865 ft 439 kts 29°
2026-05-04 15:05 50.62250 8.59530 24221 ft 443 kts 34°
2026-05-04 15:05 50.64787 8.62308 24598 ft 445 kts 34°
2026-05-04 15:05 50.67332 8.65116 24961 ft 448 kts 34°
2026-05-04 15:06 50.69889 8.67946 25330 ft 450 kts 34°
2026-05-04 15:06 50.72467 8.70798 25686 ft 453 kts 34°
2026-05-04 15:06 50.75051 8.73654 26037 ft 455 kts 34°
2026-05-04 15:07 50.80270 8.79429 26743 ft 460 kts 34°
2026-05-04 15:07 50.82904 8.82352 27093 ft 463 kts 34°
2026-05-04 15:07 50.85550 8.85297 27444 ft 465 kts 34°
2026-05-04 15:07 50.88206 8.88255 27795 ft 468 kts 34°
2026-05-04 15:08 50.90881 8.91228 28124 ft 470 kts 34°
2026-05-04 15:08 50.93564 8.94210 28460 ft 473 kts 34°
2026-05-04 15:08 50.96265 8.97219 28793 ft 475 kts 34°
2026-05-04 15:08 50.98970 9.00235 29128 ft 477 kts 34°
2026-05-04 15:09 51.01662 9.03244 29469 ft 479 kts 34°
2026-05-04 15:09 51.04392 9.06303 29802 ft 481 kts 34°
2026-05-04 15:09 51.07131 9.09381 30087 ft 483 kts 34°
2026-05-04 15:10 51.12640 9.15588 30563 ft 487 kts 34°
2026-05-04 15:10 51.15410 9.18714 30815 ft 489 kts 34°
2026-05-04 15:10 51.20976 9.25006 31365 ft 491 kts 34°
2026-05-04 15:11 51.23758 9.28166 31692 ft 491 kts 34°
2026-05-04 15:11 51.26564 9.31267 32035 ft 489 kts 30°
2026-05-04 15:11 51.29570 9.33797 32399 ft 486 kts 20°
2026-05-04 15:11 51.32742 9.35585 32829 ft 482 kts 11°
2026-05-04 15:12 51.35999 9.36767 33204 ft 479 kts
2026-05-04 15:12 51.39258 9.37889 33568 ft 478 kts
2026-05-04 15:12 51.42509 9.39022 33921 ft 477 kts
2026-05-04 15:12 51.45751 9.40161 34227 ft 477 kts
2026-05-04 15:13 51.48993 9.41306 34519 ft 477 kts
2026-05-04 15:13 51.52232 9.42448 34796 ft 476 kts
2026-05-04 15:13 51.55476 9.43588 34946 ft 476 kts
2026-05-04 15:14 51.61854 9.45833 34972 ft 470 kts
2026-05-04 15:14 51.68242 9.48096 34966 ft 470 kts
2026-05-04 15:15 51.74630 9.50352 34965 ft 470 kts
2026-05-04 15:15 51.81022 9.52649 34963 ft 471 kts 11°
2026-05-04 15:16 51.87119 9.56739 34957 ft 478 kts 24°
2026-05-04 15:16 51.90081 9.59208 34970 ft 478 kts 24°
2026-05-04 15:17 51.98940 9.66561 34956 ft 478 kts 23°
2026-05-04 15:17 52.07823 9.73946 34966 ft 478 kts 24°
2026-05-04 15:18 52.13734 9.78893 34977 ft 478 kts 23°
2026-05-04 15:19 52.22623 9.86348 34965 ft 478 kts 23°
2026-05-04 15:19 52.31476 9.93742 34950 ft 478 kts 22°
2026-05-04 15:20 52.37428 9.98619 34973 ft 478 kts 22°
2026-05-04 15:20 52.43373 10.03519 34974 ft 479 kts 22°
2026-05-04 15:21 52.49323 10.08462 34974 ft 479 kts 22°
2026-05-04 15:22 52.58237 10.15910 34989 ft 479 kts 22°
2026-05-04 15:22 52.67152 10.23382 34988 ft 478 kts 22°
2026-05-04 15:23 52.73076 10.28370 34982 ft 478 kts 22°
2026-05-04 15:23 52.79006 10.33374 34974 ft 477 kts 22°
2026-05-04 15:24 52.90796 10.43355 34972 ft 476 kts 22°
2026-05-04 15:25 52.96686 10.48387 34963 ft 476 kts 22°
2026-05-04 15:26 53.05530 10.55950 34964 ft 476 kts 22°